Location: ????????
(55.6189°N, 38.3031°E)
Time: 04:38:10
(UTC+00:00)

Cosmos 1782 - Pass Details

Date: 15 November 2019
Orbit: 536 x 554 km, 82.5° (Epoch: 09 December)

Event Time Altitude Azimuth Distance (km) Brightness Sun altitude
Rises 04:05:36 0° 346° (NNW) 2,734 6.0 -7.7°
Reaches altitude 10° 04:07:47 10° 345° (NNW) 1,832 5.1 -7.5°
Maximum altitude 04:11:48 73° 261° (W) 575 2.8 -6.9°
Drops below altitude 10° 04:15:46 10° 177° (S) 1,806 5.8 -6.4°
Sets 04:17:54 0° 175° (S) 2,690 6.8 -6.1°
